Location: Unspecified
(0.0000°N, 0.0000°E)
Time: 17:34:17
(UTC+00:00)

Vanguard 3 - Pass Details

Date: 02 February 2023
Orbit: 509 x 3249 km, 33.3° (Epoch: 20 March)

Event Time Altitude Azimuth Distance (km) Brightness Sun altitude
Rises 13:51:44 0° 211° (SSW) 2,601 10.2 60.6°
Reaches altitude 10° 13:54:08 10° 194° (SSW) 1,761 9.4 60.1°
Maximum altitude 13:57:11 22° 140° (SE) 1,300 8.5 59.5°
Drops below altitude 10° 14:00:55 10° 89° (E) 2,209 9.2 58.7°
Sets 14:04:21 0° 74° (ENE) 3,497 10.1 58.0°
